• Em Portugal
  • Lista de países
  • Para 7 dias
  • Temperatura da água
  • Mapas de satélite
  • Mapa do tempo
  • Widgets de tempo
  • user-avatar
    Iniciar Sessão

    Previsão horária em Jurkow

    Hoje, 19 Setembro, Quarta-feira

    Tempo Temperatura Precipitação Vento Pressão Humidade
    00:00 +19°C° 0 mm 3 m/s 739 mmHg 66%
    01:00 +19°C° 0 mm 3 m/s 739 mmHg 66%
    02:00 +19°C° 0 mm 3 m/s 739 mmHg 67%
    03:00 +18°C° 0 mm 3 m/s 739 mmHg 69%
    04:00 +18°C° 0 mm 3 m/s 739 mmHg 70%
    05:00 +18°C° 0 mm 2 m/s 739 mmHg 70%
    06:00 +18°C° 0 mm 2 m/s 740 mmHg 70%
    07:00 +19°C° 0 mm 2 m/s 740 mmHg 69%
    08:00 +21°C° 0 mm 2 m/s 740 mmHg 64%
    09:00 +24°C° 0 mm 2 m/s 740 mmHg 58%
    10:00 +25°C° 0 mm 2 m/s 741 mmHg 53%
    11:00 +26°C° 0 mm 2 m/s 741 mmHg 50%
    12:00 +27°C° 0 mm 2 m/s 741 mmHg 47%
    13:00 +28°C° 0 mm 2 m/s 741 mmHg 44%
    14:00 +28°C° 0 mm 2 m/s 740 mmHg 44%
    15:00 +28°C° 0 mm 1 m/s 740 mmHg 44%
    16:00 +28°C° 0 mm 1 m/s 740 mmHg 44%
    17:00 +26°C° 0.1 mm 1 m/s 740 mmHg 50%
    18:00 +25°C° 0.1 mm 1 m/s 740 mmHg 57%
    19:00 +23°C° 0.1 mm 2 m/s 740 mmHg 63%
    20:00 +21°C° 0 mm 2 m/s 740 mmHg 65%
    21:00 +20°C° 0 mm 2 m/s 740 mmHg 67%
    22:00 +20°C° 0 mm 2 m/s 740 mmHg 69%
    23:00 +20°C° 0 mm 2 m/s 740 mmHg 71%

    Amanhã, 20 Setembro, Quinta-feira

    Tempo Temperatura Precipitação Vento Pressão Humidade
    00:00 +19°C° 0 mm 2 m/s 740 mmHg 72%
    01:00 +19°C° 0 mm 2 m/s 740 mmHg 73%
    02:00 +19°C° 0 mm 2 m/s 740 mmHg 75%
    03:00 +18°C° 0 mm 2 m/s 740 mmHg 76%
    04:00 +18°C° 0 mm 2 m/s 740 mmHg 78%
    05:00 +19°C° 0 mm 2 m/s 740 mmHg 77%
    06:00 +19°C° 0 mm 2 m/s 740 mmHg 76%
    07:00 +19°C° 0 mm 2 m/s 741 mmHg 75%
    08:00 +21°C° 0 mm 2 m/s 741 mmHg 68%
    09:00 +24°C° 0 mm 2 m/s 741 mmHg 62%
    10:00 +26°C° 0 mm 2 m/s 741 mmHg 55%
    11:00 +27°C° 0.1 mm 2 m/s 741 mmHg 52%
    12:00 +28°C° 0.1 mm 2 m/s 741 mmHg 49%
    13:00 +29°C° 0.1 mm 3 m/s 741 mmHg 45%
    14:00 +29°C° 0 mm 2 m/s 740 mmHg 45%
    15:00 +29°C° 0 mm 2 m/s 740 mmHg 46%
    16:00 +28°C° 0 mm 2 m/s 740 mmHg 46%
    17:00 +27°C° 0 mm 2 m/s 740 mmHg 52%
    18:00 +25°C° 0 mm 1 m/s 739 mmHg 58%
    19:00 +23°C° 0 mm 1 m/s 739 mmHg 64%
    20:00 +22°C° 0 mm 1 m/s 739 mmHg 65%
    21:00 +22°C° 0 mm 1 m/s 739 mmHg 67%
    22:00 +20°C° 0 mm 2 m/s 739 mmHg 68%
    23:00 +20°C° 0 mm 2 m/s 739 mmHg 69%

    Depois de amanhã, 21 Setembro, Sexta-feira

    Tempo Temperatura Precipitação Vento Pressão Humidade
    00:00 +20°C° 0 mm 2 m/s 738 mmHg 71%
    01:00 +19°C° 0 mm 2 m/s 738 mmHg 72%
    02:00 +19°C° 0 mm 2 m/s 738 mmHg 73%
    03:00 +19°C° 0 mm 2 m/s 737 mmHg 74%
    04:00 +18°C° 0 mm 3 m/s 737 mmHg 75%
    05:00 +19°C° 0 mm 3 m/s 737 mmHg 72%
    06:00 +19°C° 0 mm 3 m/s 737 mmHg 70%
    07:00 +19°C° 0 mm 3 m/s 736 mmHg 67%
    08:00 +22°C° 0 mm 4 m/s 736 mmHg 59%
    09:00 +25°C° 0 mm 5 m/s 736 mmHg 51%
    10:00 +27°C° 0 mm 6 m/s 736 mmHg 44%
    11:00 +28°C° 0 mm 6 m/s 735 mmHg 41%
    12:00 +28°C° 0 mm 6 m/s 735 mmHg 39%
    13:00 +29°C° 0 mm 6 m/s 734 mmHg 37%
    14:00 +29°C° 0 mm 6 m/s 733 mmHg 39%
    15:00 +29°C° 0 mm 6 m/s 733 mmHg 40%
    16:00 +29°C° 0 mm 6 m/s 732 mmHg 42%
    17:00 +27°C° 0 mm 5 m/s 731 mmHg 46%
    18:00 +26°C° 0 mm 5 m/s 731 mmHg 49%
    19:00 +23°C° 0 mm 5 m/s 731 mmHg 53%
    20:00 +22°C° 0.1 mm 6 m/s 731 mmHg 58%
    21:00 +21°C° 0.1 mm 7 m/s 732 mmHg 63%
    22:00 +18°C° 0.1 mm 8 m/s 732 mmHg 67%
    23:00 +16°C° 1.5 mm 8 m/s 733 mmHg 73%

    22 Setembro, Sábado

    Tempo Temperatura Precipitação Vento Pressão Humidade
    00:00 +12°C° 1.5 mm 7 m/s 734 mmHg 78%
    01:00 +10°C° 1.5 mm 7 m/s 735 mmHg 83%
    02:00 +10°C° 0.4 mm 7 m/s 736 mmHg 80%
    03:00 +9°C° 0.4 mm 6 m/s 737 mmHg 78%
    04:00 +9°C° 0.4 mm 5 m/s 738 mmHg 75%
    05:00 +9°C° 0 mm 5 m/s 738 mmHg 73%
    06:00 +9°C° 0 mm 5 m/s 739 mmHg 72%
    07:00 +9°C° 0 mm 6 m/s 739 mmHg 70%
    08:00 +10°C° 0 mm 6 m/s 739 mmHg 66%
    09:00 +11°C° 0 mm 6 m/s 740 mmHg 62%
    10:00 +13°C° 0 mm 6 m/s 740 mmHg 58%
    11:00 +12°C° 0 mm 7 m/s 740 mmHg 55%
    12:00 +14°C° 0 mm 7 m/s 740 mmHg 52%
    13:00 +15°C° 0 mm 7 m/s 740 mmHg 49%
    14:00 +15°C° 0 mm 6 m/s 740 mmHg 48%
    15:00 +15°C° 0 mm 6 m/s 740 mmHg 47%
    16:00 +15°C° 0 mm 6 m/s 740 mmHg 46%
    17:00 +14°C° 0 mm 5 m/s 740 mmHg 51%
    18:00 +12°C° 0 mm 4 m/s 740 mmHg 57%
    19:00 +11°C° 0 mm 3 m/s 741 mmHg 62%
    20:00 +11°C° 0 mm 3 m/s 741 mmHg 64%
    21:00 +10°C° 0 mm 3 m/s 741 mmHg 65%
    22:00 +10°C° 0 mm 3 m/s 741 mmHg 67%
    23:00 +9°C° 0 mm 3 m/s 741 mmHg 69%

    23 Setembro, Domingo

    Tempo Temperatura Precipitação Vento Pressão Humidade
    00:00 +9°C° 0 mm 3 m/s 741 mmHg 71%
    01:00 +8°C° 0 mm 3 m/s 741 mmHg 72%
    02:00 +8°C° 0 mm 3 m/s 741 mmHg 74%
    03:00 +8°C° 0 mm 3 m/s 741 mmHg 75%
    04:00 +7°C° 0 mm 2 m/s 740 mmHg 77%
    05:00 +8°C° 0 mm 2 m/s 740 mmHg 74%
    06:00 +8°C° 0 mm 2 m/s 740 mmHg 71%
    07:00 +9°C° 0 mm 3 m/s 740 mmHg 68%
    08:00 +10°C° 0 mm 3 m/s 740 mmHg 62%
    09:00 +12°C° 0 mm 4 m/s 739 mmHg 56%
    10:00 +14°C° 0 mm 4 m/s 739 mmHg 50%
    11:00 +14°C° 0.1 mm 4 m/s 738 mmHg 49%
    12:00 +14°C° 0.1 mm 4 m/s 737 mmHg 49%
    13:00 +15°C° 0.1 mm 4 m/s 736 mmHg 48%
    14:00 +14°C° 0.8 mm 4 m/s 735 mmHg 57%
    15:00 +12°C° 0.8 mm 4 m/s 734 mmHg 65%
    16:00 +11°C° 0.8 mm 4 m/s 733 mmHg 74%
    17:00 +12°C° 1 mm 5 m/s 732 mmHg 75%
    18:00 +11°C° 1 mm 6 m/s 730 mmHg 76%
    19:00 +11°C° 1 mm 6 m/s 729 mmHg 76%
    20:00 +11°C° 0.8 mm 6 m/s 728 mmHg 77%
    21:00 +11°C° 0.8 mm 7 m/s 726 mmHg 77%
    22:00 +11°C° 0.8 mm 7 m/s 725 mmHg 78%
    23:00 +11°C° 2.8 mm 7 m/s 725 mmHg 79%

    24 Setembro, Segunda-feira

    Tempo Temperatura Precipitação Vento Pressão Humidade
    00:00 +12°C° 2.8 mm 8 m/s 725 mmHg 79%
    01:00 +12°C° 2.8 mm 9 m/s 725 mmHg 80%
    02:00 +11°C° 0.2 mm 8 m/s 724 mmHg 78%
    03:00 +10°C° 0.2 mm 8 m/s 723 mmHg 76%
    04:00 +10°C° 0.2 mm 7 m/s 723 mmHg 74%
    05:00 +10°C° 0.1 mm 8 m/s 722 mmHg 74%
    06:00 +10°C° 0.1 mm 8 m/s 722 mmHg 73%
    07:00 +10°C° 0.1 mm 8 m/s 721 mmHg 72%
    08:00 +10°C° 0.1 mm 8 m/s 721 mmHg 73%
    09:00 +11°C° 0.1 mm 9 m/s 721 mmHg 73%
    10:00 +11°C° 0.1 mm 9 m/s 722 mmHg 73%
    11:00 +11°C° 0.3 mm 9 m/s 722 mmHg 75%
    12:00 +10°C° 0.3 mm 8 m/s 723 mmHg 76%
    13:00 +10°C° 0.3 mm 8 m/s 723 mmHg 78%
    14:00 +10°C° 0.4 mm 8 m/s 724 mmHg 79%
    15:00 +9°C° 0.4 mm 8 m/s 725 mmHg 81%
    16:00 +7°C° 0.4 mm 9 m/s 725 mmHg 82%
    17:00 +7°C° 0.3 mm 9 m/s 726 mmHg 83%
    18:00 +7°C° 0.3 mm 9 m/s 726 mmHg 83%
    19:00 +7°C° 0.3 mm 9 m/s 726 mmHg 84%
    20:00 +7°C° 0.6 mm 8 m/s 727 mmHg 85%
    21:00 +7°C° 0.6 mm 8 m/s 728 mmHg 87%
    22:00 +7°C° 0.6 mm 8 m/s 728 mmHg 88%
    23:00 +7°C° 1.1 mm 9 m/s 729 mmHg 88%
    Mostrar mais